This site uses a module created by best online poker sites.

BSB police report ending February 20, 2017

"02/17/2017","00:06","217CR0003897","HARASSMENT","HARASSMENT","965 LEWISHON #A","",""
"02/17/2017","00:23","217CR0003898","ACCIDENT-MHP","ACCIDENT-MHP","I15 MM 141 NB","",""
"02/17/2017","00:41","217CR0003899","MEDICAL - EMERGENCY","MEDICAL - EMERGENCY","817 S DAKOTA ST","",""
"02/17/2017","00:44","217CR0003900","ATL","ATL","BUTTE AREA","",""
"02/17/2017","00:59","217CR0003901","DISTURBANCE","DISTURBANCE","60 E BROADWAY","",""
"02/17/2017","01:21","217CR0003902","INTIMIDATION","INTIMIDATION","2019 ARGYLE","",""
"02/17/2017","01:40","217CR0003903","MEDICAL - EMERGENCY","MEDICAL - EMERGENCY","5 FAIRWAY DR","",""
"02/17/2017","01:43","217CR0003904","PROWLER","PROWLER","3525 QUINCY ST","",""
"02/17/2017","02:24","217CR0003907","HIT AND RUN","POSSESSION OF DANGEROUS DRUGS","1900 BLK DEWEY BLVD","ARREST(s) MADE",""
"02/17/2017","02:48","217CR0003908","BUSINESS CHECK","BUSINESS CHECK","3700 HARRISON AVE","",""
"02/17/2017","02:50","217CR0003909","VANDALISM/CRIMINAL MISCHIEF","VANDALISM/CRIMINAL MISCHIEF","906 ZERELDA","",""
"02/17/2017","05:42","217CR0003910","BURGLARY","BURGLARY","634 W BROADWAY","",""
"02/17/2017","06:39","217CR0003911","STOLEN VEHICLE","MOTOR VEHICLE THEFT","11 CAMAS DRIVE","ARREST(s) MADE",""
"02/17/2017","07:04","217CR0003912","ASSIST OTHER AGENCY","ASSIST OTHER AGENCY","104 BOBCAT TRAIL","",""
"02/17/2017","07:05","217CR0003913","DETENTION BUSINESS","DETENTION BUSINESS","************","",""
"02/17/2017","07:27","217CR0003914","BUSINESS CHECK","BUSINESS CHECK","122000 BROWNS GULCH RD","",""
"02/17/2017","08:13","217CR0003915","TRAFFIC HAZARD","TRAFFIC HAZARD","500 BLK N WYOMING","",""
"02/17/2017","08:27","217CR0003916","CIVIL PAPER SERVICE","CIVIL PAPER SERVICE","1512 N MAIN","",""
"02/17/2017","08:27","217CR0003917","ALARM - BURGLARY","ALARM - BURGLARY","************","",""
"02/17/2017","08:47","217CR0003918","SUSPICIOUS ACTIVITY","SUSPICIOUS ACTIVITY","2777 HARRISON AVE","",""
"02/17/2017","09:03","217CR0003919","LED BUSINESS","LED BUSINESS","155 W GRANITE ST","",""
"02/17/2017","09:32","217CR0003921","DETENTION BUSINESS","DETENTION BUSINESS","************","",""
"02/17/2017","09:41","217CR0003922","CIVIL PAPER SERVICE","CIVIL PAPER SERVICE","3217 CARTER AVE","",""
"02/17/2017","10:01","217CR0003923","FRAUD","FRAUD","436 S MAIN #205","",""
"02/17/2017","10:15","217CR0003924","CIVIL PAPER SERVICE","CIVIL PAPER SERVICE","1118 ANTIMONY","",""
"02/17/2017","10:19","217CR0003925","VANDALISM/CRIMINAL MISCHIEF","VANDALISM/CRIMINAL MISCHIEF","2116 LOCUST","",""
"02/17/2017","11:11","217CR0003926","CIVIL PAPER SERVICE","CIVIL PAPER SERVICE","1415 SAGE","",""
"02/17/2017","11:27","217CR0003927","THEFT","THEFT","1308 ST LAWRENCE","",""
"02/17/2017","11:30","217CR0003928","SUICIDE ATTEMPT/THREAT","SUICIDE ATTEMPT/THREAT","************","",""
"02/17/2017","11:40","217CR0003929","MEDICAL - EMERGENCY","MEDICAL - EMERGENCY","1950 HOWARD","",""
"02/17/2017","12:24","217CR0003933","WANTED PERSON","WANTED PERSON","************","",""
"02/17/2017","12:35","217CR0003934","FRAUD","FRAUD","106 LYNDALE LN","",""
"02/17/2017","12:38","217CR0003935","CIVIL STANDBY","CIVIL STANDBY","714 1/2 W PARK","",""
"02/17/2017","13:01","217CR0003936","LED BUSINESS","LED BUSINESS","1001 N EMMETT AVE","",""
"02/17/2017","13:04","217CR0003937","T/S","CRIMINAL CONTEMPT","EVANS ST AND LEXINGTON AVE","ARREST(s) MADE",""
"02/17/2017","13:21","217CR0003938","SUICIDE ATTEMPT/THREAT","SUICIDE ATTEMPT/THREAT","************","",""
"02/17/2017","13:28","217CR0003939","JUVENILE RUNAWAY","JUVENILE RUNAWAY","************","",""
"02/17/2017","14:10","217CR0003940","DISTURBANCE","CRIMINAL CONTEMPT","408 S DAKOTA","ARREST(s) MADE",""
"02/17/2017","14:24","217CR0003941","JUVENILE MISC","JUVENILE MISC","************","",""
"02/17/2017","14:46","217CR0003942","THEFT","THEFT, ALL OTHERS","919 CRADOCK RD","",""
"02/17/2017","14:49","217CR0003943","ALL OTHER","ALL OTHER","225 N ALASKA ST","",""
"02/17/2017","15:16","217CR0003944","ASSAULT","ASSAULT","************","",""
"02/17/2017","15:38","217CR0003945","MEDICAL - EMERGENCY","MEDICAL - EMERGENCY","1532 ELM ST","",""
"02/17/2017","15:52","217CR0003946","STOLEN VEHICLE","MOTOR VEHICLE THEFT","540 S MAIN","",""
"02/17/2017","16:05","217CR0003947","DISTURBANCE","DISTURBANCE","4235 SPRINGFIELD AVE","",""
"02/17/2017","16:37","217CR0003948","FRAUD","THEFT OF IDENTITY","27 E GALENA","",""
"02/17/2017","16:57","217CR0003949","CIVIL STANDBY","CIVIL STANDBY","3113 RICHARDSON ST","",""
"02/17/2017","17:03","217CR0003950","MEDICAL - EMERGENCY","MEDICAL - EMERGENCY","155 W QUARTZ","",""
"02/17/2017","17:07","217CR0003951","ALARM - MEDICAL","ALARM - MEDICAL","************","",""
"02/17/2017","17:09","217CR0003952","STOLEN VEHICLE","STOLEN VEHICLE","523 S IDAHO","",""
"02/17/2017","17:16","217CR0003953","DISTURBANCE","DISTURBANCE","1125 S MAIN #206","",""
"02/17/2017","17:48","217CR0003955","JUVENILE RUNAWAY","JUVENILE RUNAWAY","************","",""
"02/17/2017","18:09","217CR0003956","JUVENILE MISC","JUVENILE MISC","************","",""
"02/17/2017","18:40","217CR0003957","ATL","ATL","1200 BLK E SECOND ST","",""
"02/17/2017","18:44","217CR0003958","CIVIL STANDBY","CIVIL STANDBY","11 1/2 S EXCELSIOR AVE","",""
"02/17/2017","18:48","217CR0003959","T/S","CRIMINAL ENDANGERMENT","MAIN AND MERCURY","ARREST(s) MADE",""
"02/17/2017","19:05","217CR0003960","MEDICAL - EMERGENCY","MEDICAL - EMERGENCY","1000 GRIZZLY TRAIL","",""
"02/17/2017","19:26","217CR0003961","DISTURBANCE","DISTURBANCE","3115 1/2 PAXSON AVE","",""
"02/17/2017","19:37","217CR0003962","DETENTION BUSINESS","DETENTION BUSINESS","************","",""
"02/17/2017","19:49","217CR0003963","ATL","ATL","MONTANA AND PORPHYRY","",""
"02/17/2017","20:03","217CR0003964","CITIZEN AID","CITIZEN AID","3217 CARTER","",""
"02/17/2017","20:40","217CR0003965","ALARM - BURGLARY","ALARM - BURGLARY","************","",""
"02/17/2017","21:13","217CR0003966","ATL","ATL","700 BLK SAMPSON","",""
"02/17/2017","21:16","217CR0003967","CITIZEN AID","CITIZEN AID","HOLMES AND ROWE","",""
"02/17/2017","21:19","217CR0003968","SUSPICIOUS ACTIVITY","SUSPICIOUS ACTIVITY","2400 BLK WASHOE","",""
"02/17/2017","21:57","217CR0003970","ACCIDENT","ACCIDENT","CONTINENTAL AND GLADSTONE","",""
"02/17/2017","22:08","217CR0003971","DISTURBANCE-NOISE","DISTURBANCE-NOISE","1144 W GRANITE","",""
"02/17/2017","22:17","217CR0003972","HARASSMENT","HARASSMENT","318 S EXCELSIOR","",""
"02/17/2017","22:21","217CR0003973","PARKING COMPLAINT","PARKING COMPLAINT","1100 BLK W GRANITE ST","",""
"02/17/2017","22:22","217CR0003974","UNWANTED PERSON","UNWANTED PERSON","************","",""
"02/17/2017","22:22","217CR0003975","ASSAULT","ASSAULT","************","",""
"02/17/2017","23:06","217CR0003980","JUVENILE MISC","JUVENILE MISC","************","",""
"02/17/2017","23:07","217CR0003981","HARASSMENT","HARASSMENT","318 S EXCELSIOR","",""
"02/17/2017","23:32","217CR0003983","SUSPICIOUS ACTIVITY","SUSPICIOUS ACTIVITY","2702 WALNUT ST","",""
"02/18/2017","00:09","217CR0003985","T/S","OPERATING W/EXPIRED PLATES","1800 BLK DEWEY BLVD","",""
"02/18/2017","00:51","217CR0003986","UNWANTED PERSON","UNWANTED PERSON","************","",""
"02/18/2017","01:12","217CR0003987","BUSINESS CHECK","BUSINESS CHECK","1004 GRIZZLEY TRAIL LUCKY LILS","",""
"02/18/2017","01:27","217CR0003988","UNWANTED PERSON","UNWANTED PERSON","************","",""
"02/18/2017","01:30","217CR0003989","THEFT","THEFT","2 E GALENA ST","",""
"02/18/2017","01:58","217CR0003990","DISTURBANCE","DISTURBANCE","2 E GALENA ST","",""
"02/18/2017","02:07","217CR0003991","DISTURBANCE-NOISE","DISTURBANCE-NOISE","2000 BLK OF GAYLORD","",""
"02/18/2017","03:52","217CR0003993","SUSPICIOUS ACTIVITY","SUSPICIOUS ACTIVITY","600 BLK S TRAVONIA","",""
"02/18/2017","04:33","217CR0003994","SUSPICIOUS ACTIVITY","SUSPICIOUS ACTIVITY","1101 FARRELL ST","",""
"02/18/2017","04:52","217CR0003995","SUSPICIOUS ACTIVITY","SUSPICIOUS ACTIVITY","HANCOCK AND BURLINGTON","",""
"02/18/2017","04:53","217CR0003996","WELFARE CHECK","WELFARE CHECK","663 S COLORADO","",""
"02/18/2017","06:54","217CR0003997","ALARM - BURGLARY","ALARM - BURGLARY","************","",""
"02/18/2017","07:02","217CR0003998","ACCIDENT-MHP","ACCIDENT-MHP","1000 BLK BEEF TRAIL","",""
"02/18/2017","08:04","217CR0003999","CITIZEN AID","CITIZEN AID","11 1/2 S EXCELSIOR","",""
"02/18/2017","08:23","217CR0004000","LED BUSINESS","LED BUSINESS","1727 PHILLIPS","",""
"02/18/2017","08:46","217CR0004001","CITIZEN AID","CITIZEN AID","THOMAS AND YALE","",""
"02/18/2017","09:12","217CR0004002","DISTURBANCE","DISTURBANCE","609 SILVER BOW HOMES","",""
"02/18/2017","09:38","217CR0004003","CIVIL PAPER SERVICE","CIVIL PAPER SERVICE","2224 SILVER BOW BLV","",""
"02/18/2017","09:51","217CR0004005","ACCIDENT","ACCIDENT","CONTINENTAL AND ATCHESON LN","",""
"02/18/2017","09:51","217CR0004004","CIVIL PAPER SERVICE","CIVIL PAPER SERVICE","625 13TH ST","",""
"02/18/2017","09:55","217CR0004006","CIVIL PAPER SERVICE","CIVIL PAPER SERVICE","1116 WAUKESHA","",""
"02/18/2017","10:08","217CR0004007","CIVIL PAPER SERVICE","CIVIL PAPER SERVICE","1221 E1ST","",""
"02/18/2017","10:13","217CR0004008","CIVIL PAPER SERVICE","CIVIL PAPER SERVICE","100 E FRONT","",""
"02/18/2017","10:21","217CR0004009","CIVIL PAPER SERVICE","CIVIL PAPER SERVICE","1730 LOWELL","",""
"02/18/2017","10:24","217CR0004010","HARASSMENT","HARASSMENT","1511 SILVER BOW HOMES","",""
"02/18/2017","10:28","217CR0004011","DISTURBANCE","DISTURBANCE","2ND AND DELAWARE","",""
"02/18/2017","10:32","217CR0004012","ATL","ATL","400 S CLARK ST","",""
"02/18/2017","10:33","217CR0004013","MEDICAL - EMERGENCY","MEDICAL - EMERGENCY","3100 BLK HARRISON AVE","",""
"02/18/2017","10:40","217CR0004014","DISTURBANCE","DISTURBANCE","227 S JACKSON","",""
"02/18/2017","11:00","217CR0004015","CIVIL STANDBY","CIVIL STANDBY","1118 ANTIMONY ST","",""
"02/18/2017","12:02","217CR0004016","ALARM - BURGLARY","ALARM - BURGLARY","************","",""
"02/18/2017","12:09","217CR0004017","CIVIL PAPER SERVICE","CIVIL PAPER SERVICE","205 W GRANITE #308","",""
"02/18/2017","12:15","217CR0004018","CIVIL PAPER SERVICE","CIVIL PAPER SERVICE","725 11TH","",""
"02/18/2017","12:15","217CR0004019","MEDICAL - EMERGENCY","MEDICAL - EMERGENCY","3150 BUSCH AVE","",""
"02/18/2017","12:31","217CR0004020","MEDICAL - EMERGENCY","MEDICAL - EMERGENCY","520 W PARK","",""
"02/18/2017","12:37","217CR0004021","CRIMINAL TRESPASS","CRIMINAL TRESPASS","425 LITTLE BASIN CREEK RD","",""
"02/18/2017","12:42","217CR0004022","STOLEN VEHICLE","STOLEN VEHICLE","TELEGRAPH // BROWNS GULCH RD","",""
"02/18/2017","13:51","217CR0004024","THEFT","THEFT","3700 HARRISON AVE","",""
"02/18/2017","15:35","217CR0004027","SUSPICIOUS ACTIVITY","SUSPICIOUS ACTIVITY","250 GREGSON LANE","",""
"02/18/2017","16:24","217CR0004028","MEDICAL - EMERGENCY","MEDICAL - EMERGENCY","901 E FRONT ST","",""
"02/18/2017","16:45","217CR0004029","RESTRAINING ORDER VIOLATION","RESTRAINING ORDER VIOLATION","************","",""
"02/18/2017","17:13","217CR0004030","CIVIL PAPER SERVICE","CIVIL PAPER SERVICE","1002 S MONTANA APT B","",""
"02/18/2017","17:27","217CR0004031","BUSINESS CHECK","BUSINESS CHECK","531 S MONTANA","",""
"02/18/2017","17:28","217CR0004032","INTIMIDATION","INTIMIDATION","1809 PORTER AVE","",""
"02/18/2017","18:15","217CR0004033","VANDALISM/CRIMINAL MISCHIEF","VANDALISM/CRIMINAL MISCHIEF","","",""
"02/18/2017","18:48","217CR0004034","TRAFFIC","TRAFFIC","401 S WYOMING ST","",""
"02/18/2017","19:20","217CR0004035","VANDALISM/CRIMINAL MISCHIEF","VANDALISM/CRIMINAL MISCHIEF","1515 OREGON AVE #113","",""
"02/18/2017","19:26","217CR0004036","ALL OTHER","ALL OTHER","3637 COLUMBUS","",""
"02/18/2017","20:21","217CR0004039","T/S","SPEEDING","GRAND AND GLADSTONE","",""
"02/18/2017","20:51","217CR0004040","THEFT","THEFT","3901 HARRISON AVE","",""
"02/18/2017","22:01","217CR0004042","SUSPICIOUS ACTIVITY","SUSPICIOUS ACTIVITY","STODDEN PARK","",""
"02/18/2017","22:13","217CR0004043","DISTURBANCE-NOISE","DISTURBANCE-NOISE","635 W GRANITE","",""
"02/18/2017","22:16","217CR0004044","CRIMINAL TRESPASS","CRIMINAL TRESPASS TO PROPERTY","226 W SILVER #7","ARREST(s) MADE",""
"02/18/2017","22:22","217CR0004045","PARKING COMPLAINT","PARKING COMPLAINT","27 E GALENA","",""
"02/18/2017","22:27","217CR0004046","DISTURBANCE","DISTURBANCE","100 BLK S MONTANA ST","",""
"02/19/2017","00:02","217CR0004047","THEFT","UNAUTHORIZED USE OF MOTOR VEH","1233 GRIZZLY TRAIL","",""
"02/19/2017","00:22","217CR0004049","BUSINESS CHECK","BUSINESS CHECK","2 E GALENA","",""
"02/19/2017","00:23","217CR0004050","FOUND PROPERTY","FOUND PROPERTY","************","",""
"02/19/2017","01:38","217CR0004054","DISTURBANCE","DISTURBANCE","GALENA AND MAIN","",""
"02/19/2017","01:53","217CR0004055","DISTURBANCE","DISTURBANCE","GALENA ST AND MAIN ST","",""
"02/19/2017","02:20","217CR0004056","THEFT","MOTOR VEHICLE THEFT","700 BLOCK S MAIN","",""
"02/19/2017","02:26","217CR0004057","INTOXICATED PERSON","INTOXICATED PERSON","924 CALEDONIA","",""
"02/19/2017","02:54","217CR0004058","INTOXICATED PERSON","INTOXICATED PERSON","WYOMING AND BROADWAY","",""
"02/19/2017","04:20","217CR0004059","DISTURBANCE","POSSESSION OF DANGEROUS DRUGS","2544 HARRISON LISACS TRI STOP","ARREST(s) MADE",""
"02/19/2017","06:44","217CR0004061","CITIZEN AID","CITIZEN AID","I90 MM216","",""
"02/19/2017","07:20","217CR0004062","THEFT","THEFT","531 S MONTANA","",""
"02/19/2017","07:33","217CR0004063","JUVENILE RUNAWAY","UNGOVERNABLE JUVENILE","2302 PRINCETON","",""
"02/19/2017","09:03","217CR0004064","ASSIST OTHER AGENCY","ASSIST OTHER AGENCY","910 EVANS #D8","",""
"02/19/2017","09:11","217CR0004065","HIT AND RUN","HIT AND RUN","1817 FLORENCE","",""
"02/19/2017","09:51","217CR0004067","CIVIL STANDBY","CIVIL STANDBY","3400 HILL #507","",""
"02/19/2017","09:56","217CR0004068","TRAFFIC HAZARD","TRAFFIC HAZARD","LAUREL // LATIGO","",""
"02/19/2017","10:12","217CR0004069","DOMESTIC ABUSE","PFMA - WEAPON","310 W FRONT","ARREST(s) MADE",""
"02/19/2017","11:01","217CR0004070","MEDICAL - EMERGENCY","MEDICAL - EMERGENCY","710 S DAKOTA ST","",""
"02/19/2017","11:02","217CR0004071","MEDICAL - EMERGENCY","MEDICAL - EMERGENCY","2930 ELM","",""
"02/19/2017","11:59","217CR0004072","STOLEN VEHICLE","THEFT FROM MOTOR VEHICLE","2100 BLK FARRAGUT","",""
"02/19/2017","12:41","217CR0004073","ATL","ATL","844 W GRANITE","",""
"02/19/2017","12:50","217CR0004074","MC COMPLAINT","MC COMPLAINT","SADDLEROCK RD","",""
"02/19/2017","13:11","217CR0004075","HARASSMENT","HARASSMENT","700 SAMPSON #B","",""
"02/19/2017","13:34","217CR0004076","INTIMIDATION","INTIMIDATION","1118 CALIFORNIA AVE","",""
"02/19/2017","13:39","217CR0004077","LED BUSINESS","LED BUSINESS","UPTOWN FOOT PATROL","",""
"02/19/2017","14:41","217CR0004078","SUICIDE ATTEMPT/THREAT","SUICIDE ATTEMPT/THREAT","************","",""
"02/19/2017","15:04","217CR0004079","DISTURBANCE","DISTURBANCE","2038 1/2 WALNUT","",""
"02/19/2017","15:42","217CR0004080","UNKNOWN PROBLEM","UNKNOWN PROBLEM","OREGON AVE AND EVANS ST","",""
"02/19/2017","15:54","217CR0004081","T/S","SPEEDING","BANKS AVE AND AMHERST ST","",""
"02/19/2017","15:58","217CR0004083","DISTURBANCE","DISTURBANCE","528 W QUARTZ","",""
"02/19/2017","16:14","217CR0004084","HARASSMENT","HARASSMENT","520 W PARK ST","",""
"02/19/2017","16:28","217CR0004086","STOLEN VEHICLE","UNAUTHORIZED USE OF MOTOR VEH","323 N JACKSON ST APT A","",""
"02/19/2017","16:34","217CR0004087","UNWANTED PERSON","UNWANTED PERSON","************","",""
"02/19/2017","17:03","217CR0004088","WANTED PERSON","CRIMINAL CONTEMPT","IDAHO ST AND PLATINUM ST","ARREST(s) MADE",""
"02/19/2017","17:15","217CR0004089","WELFARE CHECK","WELFARE CHECK","134 W PLATINUM ST","",""
"02/19/2017","17:21","217CR0004090","FRAUD","FRAUD","2320 AMHERST AVE","",""
"02/19/2017","18:11","217CR0004091","ATL","ATL","AMHERST AND FARRAGUT","",""
"02/19/2017","18:15","217CR0004092","MISSING PERSON","MISSING PERSON","************","",""
"02/19/2017","18:54","217CR0004093","FIRE- GAS ODOR","FIRE- GAS ODOR","205 S CRYSTAL","",""
"02/19/2017","19:14","217CR0004094","CITIZEN AID","CITIZEN AID","FARRELL AND MONROE","",""
"02/19/2017","19:26","217CR0004095","FIRE- GAS ODOR","FIRE- GAS ODOR","1710 SILVER BOW HOMES","",""
"02/19/2017","19:30","217CR0004096","ATL","ATL","3900 BLK OF PAXSON","",""
"02/19/2017","19:40","217CR0004097","UNWANTED PERSON","UNWANTED PERSON","************","",""
"02/19/2017","20:01","217CR0004098","MEDICAL - EMERGENCY","MEDICAL - EMERGENCY","837 S MAIN ST","",""
"02/19/2017","20:09","217CR0004099","SUSPICIOUS ACTIVITY","SUSPICIOUS ACTIVITY","1445 WATERLINE RD","",""
"02/19/2017","20:27","217CR0004100","ILLEGAL SHOOTING","CRIMINAL MISCHIEF","1202 SILVERBOW HOMES","",""
"02/19/2017","20:28","217CR0004101","UNWANTED PERSON","UNWANTED PERSON","************","",""
"02/19/2017","20:31","217CR0004102","UNWANTED PERSON","UNWANTED PERSON","************","",""
"02/19/2017","20:58","217CR0004104","SUSPICIOUS ACTIVITY","SUSPICIOUS ACTIVITY","122000 BLK NISSLER RD","",""
"02/19/2017","21:15","217CR0004105","INTOXICATED PERSON","INTOXICATED PERSON","155 W QUARTZ","",""
"02/19/2017","22:25","217CR0004106","UNWANTED PERSON","UNWANTED PERSON","************","",""
"02/19/2017","22:29","217CR0004107","ALARM - BURGLARY","ALARM - BURGLARY","************","",""
"02/19/2017","22:47","217CR0004108","WELFARE CHECK","WELFARE CHECK","106 W BROADWAY ST","",""
"02/19/2017","22:57","217CR0004109","MC COMPLAINT","MC COMPLAINT","102 E GALENA","",""
"02/19/2017","23:15","217CR0004110","FIRE- GAS ODOR","FIRE- GAS ODOR","965 LEWISHON #A","",""
"02/19/2017","23:34","217CR0004111","MEDICAL - EMERGENCY","MEDICAL - EMERGENCY","3115 MOULTON","",""
"02/19/2017","23:56","217CR0004113","MEDICAL - EMERGENCY","MEDICAL - EMERGENCY","2811 STATE ST","",""
"02/20/2017","00:01","217CR0004114","T/S","MOTOR VEHICLE THEFT","FRONT ST AND MONTANA ST","",""
"02/20/2017","00:05","217CR0004115","FIRE - VEHICLE","FIRE - VEHICLE","2000 BLK CALIFORNIA AVE","",""
"02/20/2017","00:26","217CR0004116","ATL","ATL","1700 BLK HOLMES AVE","",""
"02/20/2017","01:40","217CR0004117","DISTURBANCE-NOISE","DISTURBANCE-NOISE","637 W PARK ST","",""
"02/20/2017","01:56","217CR0004118","SUSPICIOUS ACTIVITY","SUSPICIOUS ACTIVITY","1370 HARRISON AVE","",""
"02/20/2017","02:38","217CR0004119","SUSPICIOUS ACTIVITY","POSSESSION OF DANGEROUS DRUGS","FRONT AND DELEWARE ST","ARREST(s) MADE",""
"02/20/2017","02:46","217CR0004120","ALARM - BURGLARY","ALARM - BURGLARY","************","",""
"02/20/2017","03:05","217CR0004121","MEDICAL - EMERGENCY","MEDICAL - EMERGENCY","50 W BROADWAY #504","",""
"02/20/2017","03:14","217CR0004122","ALARM - BURGLARY","ALARM - BURGLARY","************","",""
"02/20/2017","04:12","217CR0004123","DISTURBANCE-NOISE","DISTURBANCE-NOISE","GRANITE AND ALASKA","",""
"02/20/2017","06:03","217CR0004124","ALARM - BURGLARY","ALARM - BURGLARY","************","",""
"02/20/2017","06:52","217CR0004125","WELFARE CHECK","WELFARE CHECK","1715 ELM","",""
"02/20/2017","07:24","217CR0004126","WELFARE CHECK","WELFARE CHECK","844 W GRANITE","",""
 

BSB police report ending February 17, 2017

"02/16/2017","01:21","217CR0003826","SUSPICIOUS ACTIVITY","RESISTING ARREST","45 THREE BEARS DR","ARREST(s) MADE",""
"02/16/2017","05:55","217CR0003827","DISTURBANCE","DISTURBANCE","1865 GARRISON AVE","",""
"02/16/2017","06:28","217CR0003828","MEDICAL - EMERGENCY","MEDICAL - EMERGENCY","119140 RICK JONES WY","",""
"02/16/2017","06:33","217CR0003829","SUSPICIOUS ACTIVITY","SUSPICIOUS ACTIVITY","BUFFALO AND WYOMING","",""
"02/16/2017","06:53","217CR0003830","MEDICAL - EMERGENCY","MEDICAL - EMERGENCY","2911 MAMMOTH DR","",""
"02/16/2017","07:14","217CR0003831","LOST CHILD","LOST CHILD","************","",""
"02/16/2017","08:06","217CR0003832","SUSPICIOUS ACTIVITY","SUSPICIOUS ACTIVITY","EMMETT AND GRANITE","",""
"02/16/2017","08:13","217CR0003833","ACCIDENT","ACCIDENT","FARRELL AND THORNTON","",""
"02/16/2017","08:15","217CR0003834","T/S","T/S","WASHINGTON AND GRANITE","",""
"02/16/2017","08:43","217CR0003835","THEFT","THEFT","4701 HARRISON AVE","",""
"02/16/2017","08:48","217CR0003836","DETENTION BUSINESS","DETENTION BUSINESS","************","",""
"02/16/2017","08:49","217CR0003837","CIVIL PAPER SERVICE","CIVIL PAPER SERVICE","241 CURTIS ST","",""
"02/16/2017","08:57","217CR0003838","CITIZEN AID","CITIZEN AID","423 W MERCURY ST","",""
"02/16/2017","09:15","217CR0003839","T/S","T/S","PLATINUM AND MONTANA","",""
"02/16/2017","09:19","217CR0003840","CIVIL PAPER SERVICE","CIVIL PAPER SERVICE","2710 S MONTANA","",""
"02/16/2017","09:36","217CR0003841","ACCIDENT","ACCIDENT","300 BLK S ARIZONA","",""
"02/16/2017","09:51","217CR0003842","SUSPICIOUS ACTIVITY","SUSPICIOUS ACTIVITY","QUARTZ AND WYOMING","",""
"02/16/2017","09:52","217CR0003843","SUSPICIOUS ACTIVITY","SUSPICIOUS ACTIVITY","106 W BROADWAY","",""
"02/16/2017","09:56","217CR0003844","BURGLARY","BURGLARY","414 S MONTANA ST APT 15","",""
"02/16/2017","10:00","217CR0003845","INFORMATION ONLY","INFORMATION ONLY","2600 GRAND AVE E MIDDLE SCH","",""
"02/16/2017","10:02","217CR0003846","HARASSMENT","HARASSMENT","809 SILVER BOW HOMES","",""
"02/16/2017","10:38","217CR0003847","MEDICAL - EMERGENCY","MEDICAL - EMERGENCY","183 TRINITY LOOP","",""
"02/16/2017","10:59","217CR0003848","MEDICAL - EMERGENCY","MEDICAL - EMERGENCY","1324 HARRISON","",""
"02/16/2017","11:09","217CR0003849","FIRE- GAS ODOR","FIRE- GAS ODOR","10 GLADSTONE TERRECE","",""
"02/16/2017","11:10","217CR0003850","MEDICAL - EMERGENCY","MEDICAL - EMERGENCY","207 W PARK","",""
"02/16/2017","11:20","217CR0003851","LED CRASH","LED CRASH","SECOND ST AND UTAH","",""
"02/16/2017","11:37","217CR0003852","DISTURBANCE","DISTURBANCE","106 W BROADWAY","",""
"02/16/2017","11:37","217CR0003853","T/S","T/S","MONTANA ST AND GRANITE ST","",""
"02/16/2017","11:41","217CR0003854","ASSAULT","ASSAULT","************","",""
"02/16/2017","11:50","217CR0003855","T/S","T/S","MERCURY AT BELMONT CENTER","",""
"02/16/2017","12:14","217CR0003856","T/S","T/S @ PLATINUM AND TRAVONIA","PLATINUM AND TRAVONIA","",""
"02/16/2017","12:17","217CR0003857","TRAFFIC HAZARD","TRAFFIC HAZARD","COLORADO ST AND PORPHYRY ST","",""
"02/16/2017","12:21","217CR0003858","T/S","T/S @ IRON ST AND WASHINGTON ST","IRON ST AND WASHINGTON ST","",""
"02/16/2017","12:31","217CR0003859","ALARM - BURGLARY","ALARM - BURGLARY","************","",""
"02/16/2017","12:38","217CR0003860","HARASSMENT","HARASSMENT","225 N ALASKA ST","",""
"02/16/2017","12:43","217CR0003861","MEDICAL - EMERGENCY","MEDICAL - EMERGENCY","1375 JOY LN","",""
"02/16/2017","12:55","217CR0003862","SUSPICIOUS ACTIVITY","SUSPICIOUS ACTIVITY","700 BLK DEWEY","",""
"02/16/2017","13:04","217CR0003863","ALARM - FIRE","ALARM - FIRE","1125 S MAIN","",""
"02/16/2017","13:09","217CR0003864","DISTURBANCE","DISTURBANCE","528 W QUARTZ","",""
"02/16/2017","13:17","217CR0003865","THEFT","THEFT, SHOPLIFT","3901 HARRISON AVE","ARREST(s) MADE",""
"02/16/2017","13:30","217CR0003866","DETENTION BUSINESS","DETENTION BUSINESS","************","",""
"02/16/2017","13:37","217CR0003867","HARASSMENT","HARASSMENT","225 N ALASKA ST","",""
"02/16/2017","14:12","217CR0003868","DISTURBANCE","DISTURBANCE","901 S WASHINGTON #30","",""
"02/16/2017","14:19","217CR0003870","WELFARE CHECK","WELFARE CHECK","862 S MAIN ST","",""
"02/16/2017","14:20","217CR0003869","ASSAULT","ASSAULT","************","",""
"02/16/2017","14:36","217CR0003871","T/S","T/S @ ARGYLE ST AND HARRISON AVE","ARGYLE ST AND HARRISON AVE","",""
"02/16/2017","15:18","217CR0003872","HARASSMENT","HARASSMENT","50 W BROADWAY #504","",""
"02/16/2017","15:19","217CR0003873","ALL OTHER","ALL OTHER","738 N MONTANA ST","",""
"02/16/2017","15:39","217CR0003874","CIVIL PAPER SERVICE","CIVIL PAPER SERVICE","1107 W PARK ST","",""
"02/16/2017","15:42","217CR0003875","ALL OTHER","ALL OTHER","4800 SADDLE ROCK RD","",""
"02/16/2017","15:45","217CR0003876","SUSPICIOUS ACTIVITY","SUSPICIOUS ACTIVITY","1400 BLOCK HARRISON AVE","",""
"02/16/2017","16:30","217CR0003877","SUSPICIOUS ACTIVITY","SUSPICIOUS ACTIVITY","1900 BLK PRINCETON","",""
"02/16/2017","16:54","217CR0003879","T/S","T/S @ SILVERBOW BLVD AND CONTINENTAL","SILVERBOW BLVD AND CONTINENTAL","",""
"02/16/2017","17:19","217CR0003880","CIVIL PAPER SERVICE","CIVIL PAPER SERVICE","62 W BROADWAY","",""
"02/16/2017","17:27","217CR0003881","T/S","T/S @ GAYLORD ST AND MAJORS ST","GAYLORD ST AND MAJORS ST","",""
"02/16/2017","17:32","217CR0003882","DISTURBANCE","DISTURBANCE","300 BLK ARIZONA ST","",""
"02/16/2017","18:12","217CR0003883","BUSINESS CHECK","BUSINESS CHECK","531 S MONTANA ST","",""
"02/16/2017","18:35","217CR0003884","ASSIST OTHER AGENCY","ASSIST OTHER AGENCY","I90 MM 231 E BND","",""
"02/16/2017","18:48","217CR0003885","T/S","T/S @ ","","",""
"02/16/2017","18:49","217CR0003886","ALL OTHER","ALL OTHER","547 S MAIN ST","",""
"02/16/2017","19:16","217CR0003887","BURGLARY","BURGLARY","223 LYNDALE LANE","",""
"02/16/2017","19:21","217CR0003888","UNWANTED PERSON","UNWANTED PERSON","************","",""
"02/16/2017","20:21","217CR0003889","ATL","ATL","500 BLK S MAIN ST","",""
"02/16/2017","20:30","217CR0003890","MEDICAL - EMERGENCY","MEDICAL - EMERGENCY","76 MISSOULA AVE","",""
"02/16/2017","20:33","217CR0003891","HIT AND RUN","HIT AND RUN","ARIZONA ST AND BROADWAY ST","",""
"02/16/2017","21:12","217CR0003892","DISTURBANCE","DISTURBANCE","601 W GALENA","",""
"02/16/2017","22:54","217CR0003893","T/S","T/S","PLATINUM AND MONTANA","",""
"02/16/2017","22:56","217CR0003894","ALARM - BURGLARY","ALARM - BURGLARY","************","",""
"02/16/2017","23:21","217CR0003895","ATL","DUI - (REFUSAL)","500 BLK S MAIN","ARREST(s) MADE",""
"02/16/2017","23:43","217CR0003896","UNWANTED PERSON","UNWANTED PERSON","************","",""
"02/17/2017","00:06","217CR0003897","HARASSMENT","HARASSMENT","965 LEWISHON #A","",""
"02/17/2017","00:23","217CR0003898","ACCIDENT-MHP","ACCIDENT-MHP","I15 MM 141 NB","",""
"02/17/2017","00:41","217CR0003899","MEDICAL - EMERGENCY","MEDICAL - EMERGENCY","817 S DAKOTA ST","",""
"02/17/2017","00:59","217CR0003901","DISTURBANCE","DISTURBANCE","60 E BROADWAY","",""
"02/17/2017","01:21","217CR0003902","INTIMIDATION","INTIMIDATION","2019 ARGYLE","",""
"02/17/2017","01:40","217CR0003903","MEDICAL - EMERGENCY","MEDICAL - EMERGENCY","5 FAIRWAY DR","",""
"02/17/2017","01:43","217CR0003904","PROWLER","PROWLER","3525 QUINCY ST","",""
"02/17/2017","02:11","217CR0003905","T/S","T/S","60 E BROADWAY ST","",""
"02/17/2017","02:13","217CR0003906","T/S","T/S @ PLATINUM ST AND MONTANA ST","PLATINUM ST AND MONTANA ST","",""
"02/17/2017","02:24","217CR0003907","HIT AND RUN","POSSESSION OF DANGEROUS DRUGS","1900 BLK DEWEY BLVD","ARREST(s) MADE",""
"02/17/2017","02:48","217CR0003908","BUSINESS CHECK","BUSINESS CHECK","3700 HARRISON AVE","",""
"02/17/2017","02:50","217CR0003909","VANDALISM/CRIMINAL MISCHIEF","VANDALISM/CRIMINAL MISCHIEF","906 ZERELDA","",""
"02/17/2017","05:42","217CR0003910","BURGLARY","BURGLARY","634 W BROADWAY","",""
"02/17/2017","06:39","217CR0003911","STOLEN VEHICLE","MOTOR VEHICLE THEFT","11 CAMAS DRIVE","ARREST(s) MADE",""
"02/17/2017","07:04","217CR0003912","ASSIST OTHER AGENCY","ASSIST OTHER AGENCY","104 BOBCAT TRAIL","",""
"02/17/2017","07:27","217CR0003914","BUSINESS CHECK","BUSINESS CHECK","122000 BROWNS GULCH RD","",""
 

BSB police reports ending February 16, 2017

"02/15/2017","01:09","217CR0003737","BUSINESS CHECK","BUSINESS CHECK","TOWN PUMP DEWEY","",""
"02/15/2017","01:26","217CR0003738","T/S","T/S","PLATINUM ST AND EMMETT ST","",""
"02/15/2017","02:06","217CR0003739","MEDICAL - EMERGENCY","MEDICAL - EMERGENCY","100 GARDENS WAY #53","",""
"02/15/2017","02:07","217CR0003740","MEDICAL - EMERGENCY","MEDICAL - EMERGENCY","100 GARDENS WAY","",""
"02/15/2017","02:11","217CR0003741","DISTURBANCE","DISTURBANCE","3310 KEOKUK ST","",""
"02/15/2017","02:53","217CR0003742","BUSINESS CHECK","BUSINESS CHECK","531 S MONTANA ST","",""
"02/15/2017","03:45","217CR0003743","ALARM - BURGLARY","ALARM - BURGLARY","************","",""
"02/15/2017","04:39","217CR0003744","SUSPICIOUS ACTIVITY","SUSPICIOUS ACTIVITY","500 BLK E MERCURY ST","",""
"02/15/2017","06:20","217CR0003745","MEDICAL - EMERGENCY","MEDICAL - EMERGENCY","3750 S ARIZONA","",""
"02/15/2017","07:08","217CR0003746","WELFARE CHECK","WELFARE CHECK","2290 E DRIVE","",""
"02/15/2017","07:53","217CR0003747","ALARM - BURGLARY","ALARM - BURGLARY","************","",""
"02/15/2017","08:04","217CR0003748","T/S","T/S","COBBAN ANDLOWELL","",""
"02/15/2017","08:20","217CR0003749","TRAFFIC HAZARD","TRAFFIC HAZARD","HOLMES AND WESTERN","",""
"02/15/2017","08:24","217CR0003750","T/S","T/S","GRAND AVE AND FARRAGUT ST","",""
"02/15/2017","08:33","217CR0003751","CRIMINAL TRESPASS","THEFT FROM BUILDINGS","138 W PEARL","",""
"02/15/2017","08:34","217CR0003752","T/S","DRIVE WHILE SUSP. OR REVOKED","PLATINUM AND NEVADA","",""
"02/15/2017","08:50","217CR0003753","DETENTION BUSINESS","DETENTION BUSINESS","************","",""
"02/15/2017","09:16","217CR0003754","T/S","T/S","MONTANA AND GOLD","",""
"02/15/2017","09:35","217CR0003755","T/S","T/S","MONTANA AND PLATINUM","",""
"02/15/2017","09:42","217CR0003756","TRAFFIC HAZARD","TRAFFIC HAZARD","MONTANA AND WOOLMAN","",""
"02/15/2017","09:56","217CR0003757","CIVIL PAPER SERVICE","CIVIL PAPER SERVICE","622 1/2 S IDAHO","",""
"02/15/2017","09:56","217CR0003758","T/S","T/S","TEXAS AND GRAND","",""
"02/15/2017","10:12","217CR0003759","T/S","SPEEDING","FRONT AND DAKOTA ST","",""
"02/15/2017","10:18","217CR0003760","FRAUD","FRAUD","225 N ALASKA ST","",""
"02/15/2017","10:59","217CR0003761","PARKING COMPLAINT","PARKING COMPLAINT","25 W FRONT","",""
"02/15/2017","11:02","217CR0003762","T/S","T/S","ALUMINUM ST AND MONTANA","",""
"02/15/2017","11:07","217CR0003763","UNWANTED PERSON","UNWANTED PERSON","************","",""
"02/15/2017","11:09","217CR0003764","UNWANTED PERSON","UNWANTED PERSON","************","",""
"02/15/2017","11:14","217CR0003765","MEDICAL - EMERGENCY","POSSESSION OF DANGEROUS DRUGS","806 PLACER ST","",""
"02/15/2017","11:18","217CR0003766","MEDICAL - EMERGENCY","MEDICAL - EMERGENCY","2600 S MAIN","",""
"02/15/2017","11:26","217CR0003767","T/S","T/S","FARRELL AND STUART","",""
"02/15/2017","11:36","217CR0003768","T/S","T/S","PRINCETON AND MEADE","",""
"02/15/2017","11:59","217CR0003769","HARASSMENT","HARASSMENT","1205 S MONTANA","",""
"02/15/2017","12:04","217CR0003770","T/S","T/S @ 3544 HARRISON UNIVERSAL ATHLET","3544 HARRISON UNIVERSAL ATHLET","",""
"02/15/2017","12:06","217CR0003771","LED BUSINESS","LED BUSINESS","RURAL PATROL","",""
"02/15/2017","12:15","217CR0003772","CIVIL PAPER SERVICE","CIVIL PAPER SERVICE","1407 HARRISON AVE","",""
"02/15/2017","12:16","217CR0003773","UNWANTED PERSON","DISORDERLY CONDUCT","531 S MONTANA","ARREST(s) MADE",""
"02/15/2017","12:19","217CR0003774","BURGLARY","BURGLARY, RESIDENCE","1004 EMPIRE","",""
"02/15/2017","12:25","217CR0003775","T/S","T/S @ GRAND AND ADAMS","GRAND AND ADAMS","",""
"02/15/2017","12:31","217CR0003776","THEFT","THEFT","648 S COLORADO ST","",""
"02/15/2017","12:51","217CR0003777","RESTRAINING ORDER VIOLATION","CRIMINAL MISCHIEF","326 CURTIS","",""
"02/15/2017","13:29","217CR0003778","UNWANTED PERSON","UNWANTED PERSON","************","",""
"02/15/2017","13:33","217CR0003779","DETENTION BUSINESS","DETENTION BUSINESS","************","",""
"02/15/2017","14:03","217CR0003780","ASSAULT","ASSAULT","************","",""
"02/15/2017","14:04","217CR0003781","MEDICAL - EMERGENCY","MEDICAL - EMERGENCY","1427 SAMPSON ST","",""
"02/15/2017","14:10","217CR0003782","LED BUSINESS","LED BUSINESS","155 W QUARTZ","",""
"02/15/2017","14:13","217CR0003783","WELFARE CHECK","WELFARE CHECK","1105 WATERLINE ROAD","",""
"02/15/2017","14:29","217CR0003784","ALARM - BURGLARY","ALARM - BURGLARY","************","",""
"02/15/2017","14:49","217CR0003785","SUSPICIOUS ACTIVITY","SUSPICIOUS ACTIVITY","3703 HARRISON AVE","",""
"02/15/2017","14:58","217CR0003786","ALARM - BURGLARY","ALARM - BURGLARY","************","",""
"02/15/2017","15:05","217CR0003787","MEDICAL - EMERGENCY","MEDICAL - EMERGENCY","1301 HARRISON AVE","",""
"02/15/2017","15:15","217CR0003788","BURGLARY","BURGLARY","3938 IRIS RIDGE","",""
"02/15/2017","15:25","217CR0003789","WELFARE CHECK","WELFARE CHECK","100 W PARK ST","",""
"02/15/2017","15:42","217CR0003790","UNWANTED PERSON","UNWANTED PERSON","************","",""
"02/15/2017","15:54","217CR0003791","THEFT","THEFT, ALL OTHERS","300 MOUNT HIGHLAND DR","",""
"02/15/2017","15:55","217CR0003792","SUSPICIOUS ACTIVITY","SUSPICIOUS ACTIVITY","1809 PORTER AVE","",""
"02/15/2017","16:06","217CR0003793","SUICIDE ATTEMPT/THREAT","SUICIDE ATTEMPT/THREAT","************","",""
"02/15/2017","16:11","217CR0003794","ALL OTHER","ALL OTHER","3208 SHERIDAN","",""
"02/15/2017","16:12","217CR0003795","PARKING COMPLAINT","PARKING COMPLAINT","910 EVANS APT A2","",""
"02/15/2017","16:29","217CR0003796","FRAUD","FRAUD","225 N ALASKA ST","",""
"02/15/2017","16:44","217CR0003797","T/S","T/S","HOBSON AND OREGON AVE","",""
"02/15/2017","16:55","217CR0003798","WANTED PERSON","CRIMINAL CONTEMPT","1917 OREGON","ARREST(s) MADE",""
"02/15/2017","17:23","217CR0003800","STOLEN VEHICLE","STOLEN VEHICLE","1400 BROWNING ST","",""
"02/15/2017","17:24","217CR0003801","ALARM-DURESS","ALARM-DURESS","************","",""
"02/15/2017","17:26","217CR0003803","INTIMIDATION","INTIMIDATION","801 E FRONT ANNIES CAFE","",""
"02/15/2017","17:26","217CR0003802","T/S","T/S @ FRONT ST AND DAKOTA ST","FRONT ST AND DAKOTA ST","",""
"02/15/2017","17:33","217CR0003804","MEDICAL - EMERGENCY","MEDICAL - EMERGENCY","1102 SILVER BOW HOMES","",""
"02/15/2017","17:36","217CR0003805","MEDICAL - EMERGENCY","MEDICAL - EMERGENCY","10 BLK W PARK ST","",""
"02/15/2017","17:41","217CR0003806","ACCIDENT - INJURY","ACCIDENT - INJURY","3901 HARRISON AVE","",""
"02/15/2017","17:47","217CR0003807","CIVIL PAPER SERVICE","CIVIL PAPER SERVICE","1308 SILVER BOW HOMES","",""
"02/15/2017","17:59","217CR0003808","FIRE- GAS ODOR","FIRE- GAS ODOR","2644 OREGON AVE","",""
"02/15/2017","18:25","217CR0003809","ASSAULT","ASSAULT, SIMPLE","3139 BUSCH ST","",""
"02/15/2017","19:07","217CR0003810","MEDICAL - EMERGENCY","MEDICAL - EMERGENCY","2400 CONTINENTAL","",""
"02/15/2017","19:37","217CR0003811","ALARM - MEDICAL","ALARM - MEDICAL","************","",""
"02/15/2017","19:43","217CR0003812","ALL OTHER","ALL OTHER","1736 LONGELLOW #4","",""
"02/15/2017","19:49","217CR0003813","OPEN BUILDING","OPEN BUILDING","527 W MERCURY ST","",""
"02/15/2017","20:00","217CR0003814","VANDALISM/CRIMINAL MISCHIEF","VANDALISM/CRIMINAL MISCHIEF","1101 FARRELL ST","",""
"02/15/2017","20:05","217CR0003815","ASSIST OTHER AGENCY","ASSIST OTHER AGENCY","I90 EB MM 235","",""
"02/15/2017","21:22","217CR0003816","TRAFFIC","TRAFFIC","MASSACHUSETTS AND HARRISON AVE","",""
"02/15/2017","21:39","217CR0003817","SUSPICIOUS ACTIVITY","SUSPICIOUS ACTIVITY","1028 S WYOMING","",""
"02/15/2017","22:38","217CR0003819","ASSAULT","ASSAULT, SIMPLE","55 BASIN CREEK RD","ARREST(s) MADE",""
"02/15/2017","22:45","217CR0003820","FOUND PROPERTY","FOUND PROPERTY","************","",""
"02/15/2017","22:52","217CR0003821","T/S","T/S","S PARKING LOT SILVER BOW HOMES","",""
"02/15/2017","23:02","217CR0003822","T/S","T/S","PLATINUM ST AND MONTANA ST","",""
"02/15/2017","23:04","217CR0003823","ALL OTHER","ALL OTHER","225 N ALASKA ST","",""
"02/15/2017","23:14","217CR0003824","ASSIST OTHER AGENCY","ASSIST OTHER AGENCY","FRONT ST AND DAKOTA ST","",""
"02/15/2017","23:14","217CR0003825","UNWANTED PERSON","CRIMINAL TRESPASS TO VEHICLE","1000 GRIZZLY TR","",""
"02/16/2017","01:21","217CR0003826","SUSPICIOUS ACTIVITY","RESISTING ARREST","45 THREE BEARS DR","ARREST(s) MADE",""
"02/16/2017","05:55","217CR0003827","DISTURBANCE","DISTURBANCE","1865 GARRISON AVE","",""
"02/16/2017","06:28","217CR0003828","MEDICAL - EMERGENCY","MEDICAL - EMERGENCY","119140 RICK JONES WY","",""
"02/16/2017","06:33","217CR0003829","SUSPICIOUS ACTIVITY","SUSPICIOUS ACTIVITY","BUFFALO AND WYOMING","",""
"02/16/2017","06:53","217CR0003830","MEDICAL - EMERGENCY","MEDICAL - EMERGENCY","2911 MAMMOTH DR","",""
 

BSB police reports ending February 15, 2017

"02/14/2017","00:19","217CR0003650","DISTURBANCE","DISTURBANCE","920 COLORADO","",""
"02/14/2017","00:37","217CR0003651","SUSPICIOUS ACTIVITY","SUSPICIOUS ACTIVITY","EMMA ST AND FARRELL ST","",""
"02/14/2017","00:59","217CR0003652","SUSPICIOUS ACTIVITY","SUSPICIOUS ACTIVITY","1000 BLK S EXCELSIOR AVE","",""
"02/14/2017","01:48","217CR0003653","T/S","DRIVE WHILE SUSP. OR REVOKED","PARK ST AND MONTANA ST","",""
"02/14/2017","02:18","217CR0003654","THEFT","THEFT","1 W PARK","",""
"02/14/2017","02:30","217CR0003655","AP&P BUSINESS","AP&P BUSINESS","910 EVANS AVE APT E4","",""
"02/14/2017","03:40","217CR0003656","SUSPICIOUS ACTIVITY","SUSPICIOUS ACTIVITY","1049 W PORPHYRY","",""
"02/14/2017","06:04","217CR0003658","ALARM - BURGLARY","ALARM - BURGLARY","************","",""
"02/14/2017","06:29","217CR0003659","DRUGS","DRUGS","************","",""
"02/14/2017","08:00","217CR0003660","WELFARE CHECK","WELFARE CHECK","631 W GALENA","",""
"02/14/2017","08:46","217CR0003661","ABANDONED VEHICLE","ABANDONED VEHICLE","905 W COPPER","",""
"02/14/2017","08:51","217CR0003662","UNWANTED PERSON","UNWANTED PERSON","************","",""
"02/14/2017","08:53","217CR0003663","ABANDONED VEHICLE","ABANDONED VEHICLE","400 BLK W GRANITE","",""
"02/14/2017","09:11","217CR0003664","T/S","T/S","CONTINENTAL AND LOCUST","",""
"02/14/2017","09:15","217CR0003665","SUSPICIOUS ACTIVITY","SUSPICIOUS ACTIVITY","712 E FRONT ST","",""
"02/14/2017","09:17","217CR0003666","ACCIDENT","ACCIDENT","920 W COPPER","",""
"02/14/2017","09:20","217CR0003667","LED BUSINESS","LED BUSINESS","300 MOUNT HIGHLAND DR","",""
"02/14/2017","09:31","217CR0003668","MEDICAL - EMERGENCY","MEDICAL - EMERGENCY","3745 HARRISON","",""
"02/14/2017","09:36","217CR0003669","UNWANTED PERSON","UNWANTED PERSON","************","",""
"02/14/2017","09:51","217CR0003670","FIRE- GAS ODOR","FIRE- GAS ODOR","183 TRINITY LOOP","",""
"02/14/2017","09:58","217CR0003671","FIRE- GAS ODOR","FIRE- GAS ODOR","523 W SILVER","",""
"02/14/2017","10:08","217CR0003672","ATL","ATL","GRAND AND STUART","",""
"02/14/2017","10:10","217CR0003673","CIVIL PAPER SERVICE","CIVIL PAPER SERVICE","153 TRINITY LOOP","",""
"02/14/2017","10:12","217CR0003674","T/S","T/S","TEXAS AND ELM","",""
"02/14/2017","10:17","217CR0003675","SEXUAL ASSAULT","SEXUAL ASSAULT","************","",""
"02/14/2017","10:42","217CR0003676","ACCIDENT","ACCIDENT","PARK AND MAIN","",""
"02/14/2017","10:46","217CR0003677","CITIZEN AID","CITIZEN AID","1523 N B ST","",""
"02/14/2017","11:04","217CR0003678","CITIZEN AID","CITIZEN AID","849 W QUARTZ","",""
"02/14/2017","11:09","217CR0003679","TRAFFIC HAZARD","TRAFFIC HAZARD","1800 BLK THORNTON","",""
"02/14/2017","11:11","217CR0003680","ANIMAL COMPLAINT","ANIMAL COMPLAINT","3625 ALBANY","",""
"02/14/2017","11:39","217CR0003681","DETENTION BUSINESS","DETENTION BUSINESS","************","",""
"02/14/2017","12:03","217CR0003682","JUVENILE MISC","JUVENILE MISC","************","",""
"02/14/2017","12:05","217CR0003683","THEFT","THEFT, SHOPLIFT","3901 HARRISON AVE","ARREST(s) MADE",""
"02/14/2017","12:14","217CR0003684","T/S","OBSTRUCTING A PEACE OFFICER","MONTANA AND LASALLE","ARREST(s) MADE",""
"02/14/2017","12:16","217CR0003685","T/S","T/S","DEWEY BLVD AND NEVADA ST","",""
"02/14/2017","12:27","217CR0003686","RESTRAINING ORDER VIOLATION","RESTRAINING ORDER VIOLATION","************","",""
"02/14/2017","12:45","217CR0003687","T/S","T/S","COBBAN ST AND HOWARD AVE","",""
"02/14/2017","12:47","217CR0003688","INFORMATION ONLY","INFORMATION ONLY","2036 WALNUT","",""
"02/14/2017","13:35","217CR0003689","INFORMATION ONLY","INFORMATION ONLY","1001 N EMMETT KENNEDY SCHOOL","",""
"02/14/2017","13:40","217CR0003690","LED BUSINESS","LED BUSINESS","UPTOWN FOOT PATROL","",""
"02/14/2017","13:43","217CR0003691","SUSPICIOUS ACTIVITY","SUSPICIOUS ACTIVITY","360 BEEF TRAIL","",""
"02/14/2017","13:50","217CR0003692","PARKING COMPLAINT","PARKING COMPLAINT","946 S MONTANA","",""
"02/14/2017","14:04","217CR0003693","T/S","T/S","2200 S MONTANA ST","",""
"02/14/2017","14:10","217CR0003694","ALL OTHER","ALL OTHER","225 N ALASKA ST","",""
"02/14/2017","14:10","217CR0003695","T/S","T/S","BANKS AVE AND AMHERST ST","",""
"02/14/2017","14:22","217CR0003696","T/S","SPEEDING","1300 BLK B ST","",""
"02/14/2017","14:36","217CR0003697","AP&P BUSINESS","AP&P BUSINESS","2906 LOCUST","",""
"02/14/2017","14:39","217CR0003698","THEFT","THEFT","I90 RAMSAY EXIT WB","",""
"02/14/2017","14:39","217CR0003699","UNWANTED PERSON","UNWANTED PERSON","************","",""
"02/14/2017","14:46","217CR0003700","ASSIST OTHER AGENCY","ASSIST OTHER AGENCY","2118 GAYLORD","",""
"02/14/2017","14:55","217CR0003701","UNWANTED PERSON","UNWANTED PERSON","************","",""
"02/14/2017","14:58","217CR0003702","CIVIL PAPER SERVICE","CIVIL PAPER SERVICE","404 SILVER BOW HOMES","",""
"02/14/2017","15:00","217CR0003703","CIVIL PAPER SERVICE","CIVIL PAPER SERVICE","508 SILVER BOW HOMES","",""
"02/14/2017","15:07","217CR0003704","STOLEN VEHICLE","STOLEN VEHICLE","225 N ALASKA ST","",""
"02/14/2017","15:11","217CR0003705","T/S","SPEEDING","OREGON AND SCHLEY","",""
"02/14/2017","15:21","217CR0003706","ACCIDENT- INJURY(MHP)","ACCIDENT- INJURY(MHP)","I90 MM 215 W BND","",""
"02/14/2017","15:30","217CR0003707","BURGLARY","BURGLARY","1004 EMPIRE","",""
"02/14/2017","15:57","217CR0003708","ASSIST OTHER AGENCY","ASSIST OTHER AGENCY","400 S CLARK ST","",""
"02/14/2017","16:18","217CR0003709","JUVENILE RUNAWAY","JUVENILE RUNAWAY","************","",""
"02/14/2017","16:18","217CR0003710","TRAFFIC","TRAFFIC","3600 BLK WARREN AVE","",""
"02/14/2017","16:27","217CR0003711","FRAUD","FRAUD","3703 B HARRISON AVE","",""
"02/14/2017","17:00","217CR0003712","MEDICAL - ASSIST","MEDICAL - ASSIST","************","",""
"02/14/2017","17:15","217CR0003713","JUVENILE RUNAWAY","UNGOVERNABLE JUVENILE","910 SILVER BOW HOMES","ARREST(s) MADE",""
"02/14/2017","17:36","217CR0003714","SUICIDE ATTEMPT/THREAT","SUICIDE ATTEMPT/THREAT","************","",""
"02/14/2017","17:45","217CR0003715","MEDICAL - EMERGENCY","MEDICAL - EMERGENCY","2821 EDWARDS ST","",""
"02/14/2017","17:57","217CR0003716","ACCIDENT","ACCIDENT","33 W PARK ST","",""
"02/14/2017","18:01","217CR0003717","ASSIST OTHER AGENCY","ASSIST OTHER AGENCY","I90 MM 233 E BND","",""
"02/14/2017","18:08","217CR0003718","LOST OR STOLEN PROPERTY","THEFT, ALL OTHERS","10 W PARK","",""
"02/14/2017","18:16","217CR0003719","MAN WITH A GUN","MAN WITH A GUN","************","",""
"02/14/2017","18:27","217CR0003720","HIT AND RUN","HIT AND RUN","1300 W PARK ST","",""
"02/14/2017","18:34","217CR0003721","JUVENILE RUNAWAY","JUVENILE RUNAWAY","************","",""
"02/14/2017","18:42","217CR0003722","OPEN BUILDING","OPEN BUILDING","1702 WHITMAN ST","",""
"02/14/2017","19:04","217CR0003723","MEDICAL - EMERGENCY","MEDICAL - EMERGENCY","3540 HARRISON MONTANA CLUB","",""
"02/14/2017","19:28","217CR0003724","MEDICAL - EMERGENCY","MEDICAL - EMERGENCY","1300 W PARK/MT TECH HYPER","",""
"02/14/2017","19:40","217CR0003725","DISTURBANCE","DISTURBANCE","102 N HENRY ST","",""
"02/14/2017","19:45","217CR0003726","MEDICAL - EMERGENCY","MEDICAL - EMERGENCY","122000 BROWNS GULCH RD","",""
"02/14/2017","20:04","217CR0003727","VANDALISM/CRIMINAL MISCHIEF","VANDALISM/CRIMINAL MISCHIEF","303 E PARK ST","",""
"02/14/2017","20:09","217CR0003728","SUICIDE ATTEMPT/THREAT","SUICIDE ATTEMPT/THREAT","************","",""
"02/14/2017","20:56","217CR0003729","T/S","T/S","600 BLK SHIELDS AVE","",""
"02/14/2017","22:15","217CR0003730","T/S","T/S","CASEY ST AND NOYES ST","",""
"02/14/2017","22:34","217CR0003731","T/S","T/S","1900 BLK S MONTANA ST","",""
"02/14/2017","22:47","217CR0003733","T/S","T/S","3800 BLK OF HARRISON AVE","",""
"02/14/2017","23:10","217CR0003734","ALARM - BURGLARY","ALARM - BURGLARY","************","",""
"02/14/2017","23:32","217CR0003735","DISTURBANCE","RESISTING ARREST","916 E FRONT GILLIGANS","ARREST(s) MADE",""
"02/14/2017","23:43","217CR0003736","BUSINESS CHECK","BUSINESS CHECK","1370 HARRISON AVE","",""
"02/15/2017","01:09","217CR0003737","BUSINESS CHECK","BUSINESS CHECK","TOWN PUMP DEWEY","",""
"02/15/2017","01:26","217CR0003738","T/S","T/S","PLATINUM ST AND EMMETT ST","",""
"02/15/2017","02:06","217CR0003739","MEDICAL - EMERGENCY","MEDICAL - EMERGENCY","100 GARDENS WAY #53","",""
"02/15/2017","02:07","217CR0003740","MEDICAL - EMERGENCY","MEDICAL - EMERGENCY","100 GARDENS WAY","",""
"02/15/2017","02:11","217CR0003741","DISTURBANCE","DISTURBANCE","3310 KEOKUK ST","",""
"02/15/2017","02:53","217CR0003742","BUSINESS CHECK","BUSINESS CHECK","531 S MONTANA ST","",""
"02/15/2017","03:45","217CR0003743","ALARM - BURGLARY","ALARM - BURGLARY","************","",""
"02/15/2017","04:39","217CR0003744","SUSPICIOUS ACTIVITY","SUSPICIOUS ACTIVITY","500 BLK E MERCURY ST","",""
"02/15/2017","06:20","217CR0003745","MEDICAL - EMERGENCY","MEDICAL - EMERGENCY","3750 S ARIZONA","",""
"02/15/2017","07:08","217CR0003746","WELFARE CHECK","WELFARE CHECK","2290 E DRIVE","",""
"02/15/2017","07:53","217CR0003747","ALARM - BURGLARY","ALARM - BURGLARY","************","",""
 

BSB police reports ending February 14, 2017

"02/13/2017","00:18","217CR0003564","INTOXICATED PERSON","INTOXICATED PERSON","10 BLK N WYOMING ST","",""
"02/13/2017","00:38","217CR0003565","JUVENILE RUNAWAY","UNGOVERNABLE JUVENILE","1117 S WYOMING ST","",""
"02/13/2017","00:46","217CR0003566","SUSPICIOUS ACTIVITY","SUSPICIOUS ACTIVITY","700 BLK UTAH","",""
"02/13/2017","00:48","217CR0003567","MEDICAL - EMERGENCY","MEDICAL - EMERGENCY","1370 HARRISON AVE","",""
"02/13/2017","01:42","217CR0003568","SUSPICIOUS ACTIVITY","POSSESSION OF DANGEROUS DRUGS","2223 WALL ST","ARREST(s) MADE",""
"02/13/2017","01:53","217CR0003569","SUSPICIOUS ACTIVITY","SUSPICIOUS ACTIVITY","448 N IDAHO","",""
"02/13/2017","01:54","217CR0003570","SUSPICIOUS ACTIVITY","SUSPICIOUS ACTIVITY","450 N IDAHO ST","",""
"02/13/2017","02:06","217CR0003571","T/S","T/S","10 BLK E BROADWAY","",""
"02/13/2017","02:16","217CR0003572","T/S","T/S","MONTANA AND ROWE RD","",""
"02/13/2017","03:43","217CR0003573","FOUND PROPERTY","FOUND PROPERTY","************","",""
"02/13/2017","04:44","217CR0003574","ALARM - BURGLARY","ALARM - BURGLARY","************","",""
"02/13/2017","05:26","217CR0003575","ASSIST OTHER AGENCY","ASSIST OTHER AGENCY","400 S CLARK ST","",""
"02/13/2017","05:34","217CR0003576","ASSIST OTHER AGENCY","ASSIST OTHER AGENCY","400 S CLARK ST","",""
"02/13/2017","06:39","217CR0003577","SUSPICIOUS ACTIVITY","SUSPICIOUS ACTIVITY","122001 W BROWNS GULCH RD","",""
"02/13/2017","07:24","217CR0003578","MEDICAL - EMERGENCY","MEDICAL - EMERGENCY","903 SILVER BOW HOMES","",""
"02/13/2017","07:42","217CR0003579","T/S","T/S @ ALUMINUM AND MONTANA","ALUMINUM AND MONTANA","",""
"02/13/2017","07:44","217CR0003580","CITIZEN AID","CITIZEN AID","1 SCHOOL HOUSE RD","",""
"02/13/2017","08:11","217CR0003581","T/S","NO LIABILITY INSURANCE IN EFF.","1000 BLK S EXCELSIOR AVE","",""
"02/13/2017","08:32","217CR0003582","ACCIDENT","ACCIDENT","COPPER AND MAIN","",""
"02/13/2017","08:54","217CR0003583","T/S","T/S","GOLD AND MONTANA","",""
"02/13/2017","09:07","217CR0003584","CITIZEN AID","CITIZEN AID","1324 HARRISON","",""
"02/13/2017","09:24","217CR0003585","SUSPICIOUS ACTIVITY","SUSPICIOUS ACTIVITY","FRONT AND MONTANA","",""
"02/13/2017","09:26","217CR0003586","CITIZEN AID","CITIZEN AID","","",""
"02/13/2017","09:44","217CR0003587","ATL","ATL","24 E COPPER","",""
"02/13/2017","09:45","217CR0003588","TRAFFIC","TRAFFIC","31 BLK W LAPLATTE","",""
"02/13/2017","10:13","217CR0003589","THEFT","DECEPTIVE PRACTICE/CREDIT CARD","815 E SECOND","",""
"02/13/2017","10:56","217CR0003590","MEDICAL - EMERGENCY","MEDICAL - EMERGENCY","4034 ELIZABETH WARREN","",""
"02/13/2017","11:28","217CR0003591","THEFT","THEFT, ALL OTHERS","226 W SILVER ST #12","",""
"02/13/2017","11:39","217CR0003592","ASSIST OTHER AGENCY","ASSIST OTHER AGENCY","429 W SILVER","",""
"02/13/2017","12:00","217CR0003593","LED BUSINESS","LED BUSINESS","155 W GRANITE","",""
"02/13/2017","12:10","217CR0003594","PROWLER","PROWLER","3101 GOODWIN","",""
"02/13/2017","12:19","217CR0003595","THEFT","THEFT FROM BUILDINGS","2400 CONTINENTAL DR","",""
"02/13/2017","12:23","217CR0003596","FRAUD","FRAUD","3238 FLORAL BLVD","",""
"02/13/2017","12:24","217CR0003597","T/S","T/S @ PARK ST AND DAKOTA ST","PARK ST AND DAKOTA ST","",""
"02/13/2017","12:27","217CR0003598","ATL","ATL","GEORGE AND HARRISON","",""
"02/13/2017","12:28","217CR0003599","SUSPICIOUS ACTIVITY","SUSPICIOUS ACTIVITY","ATLANTIC AND FARRELL","",""
"02/13/2017","12:48","217CR0003600","LED BUSINESS","LED BUSINESS","155 W GRANITE","",""
"02/13/2017","13:17","217CR0003601","STOLEN VEHICLE","MOTOR VEHICLE THEFT","1933 UTAH ST","",""
"02/13/2017","13:25","217CR0003602","ACCIDENT","ACCIDENT","3937 HARRISON AVE","",""
"02/13/2017","13:28","217CR0003603","ALARM - BURGLARY","ALARM - BURGLARY","************","",""
"02/13/2017","13:32","217CR0003604","CRIMINAL TRESPASS","CRIMINAL TRESPASS","636 1/2 W PARK","",""
"02/13/2017","13:32","217CR0003605","LED BUSINESS","LED BUSINESS","UPTOWN FOOT PATROL","",""
"02/13/2017","14:01","217CR0003606","ANIMAL COMPLAINT","ANIMAL COMPLAINT","MISSOULA AVE AND FIFTH ST","",""
"02/13/2017","14:11","217CR0003607","ASSAULT","ASSAULT","************","",""
"02/13/2017","14:12","217CR0003608","ALL OTHER","ALL OTHER","1100 BLK W PARK ST","",""
"02/13/2017","14:14","217CR0003609","WELFARE CHECK","WELFARE CHECK","3901 HARRISON AVE","",""
"02/13/2017","14:20","217CR0003610","T/S","T/S @ 3600 BLK HARRISON AVE","3600 BLK HARRISON AVE","",""
"02/13/2017","14:48","217CR0003611","MEDICAL - EMERGENCY","MEDICAL - EMERGENCY","2614 SILVERBOW BLVD","",""
"02/13/2017","14:54","217CR0003612","SUICIDE ATTEMPT/THREAT","SUICIDE ATTEMPT/THREAT","************","",""
"02/13/2017","15:00","217CR0003613","T/S","T/S @ 2600 GRAND","2600 GRAND","",""
"02/13/2017","15:02","217CR0003614","HARASSMENT","HARASSMENT","629 W PARK ST","",""
"02/13/2017","15:09","217CR0003615","FIRE- GAS ODOR","FIRE- GAS ODOR","135 W BROADWAY","",""
"02/13/2017","15:16","217CR0003616","T/S","RIGHT-OF-WAY VIOLATION","222 E PARK","",""
"02/13/2017","15:18","217CR0003617","MEDICAL - EMERGENCY","MEDICAL - EMERGENCY","435 S CRYSTAL","",""
"02/13/2017","15:37","217CR0003618","ALL OTHER","ALL OTHER","2626 WALNUT ST","",""
"02/13/2017","15:44","217CR0003619","CIVIL PAPER SERVICE","CIVIL PAPER SERVICE","3218 EVANS","",""
"02/13/2017","15:53","217CR0003620","FIRE - OTHER","FIRE - OTHER","225 N ALASKA ST","",""
"02/13/2017","16:10","217CR0003621","ALARM - BURGLARY","ALARM - BURGLARY","************","",""
"02/13/2017","16:13","217CR0003622","ALL OTHER","ALL OTHER","22 KINGS COURT","",""
"02/13/2017","16:23","217CR0003623","T/S","T/S @ 1205 S MONTANA","1205 S MONTANA","",""
"02/13/2017","16:31","217CR0003624","T/S","SPEEDING","PARK ST AND EXCELSIOR AVE","",""
"02/13/2017","16:49","217CR0003625","UNWANTED PERSON","UNWANTED PERSON","************","",""
"02/13/2017","16:59","217CR0003626","DISTURBANCE","DISTURBANCE","2640 COLUSA ST","",""
"02/13/2017","17:03","217CR0003627","ATL","ATL","GEORGE ST AND HARRISON AVE","",""
"02/13/2017","17:08","217CR0003628","MEDICAL - EMERGENCY","MEDICAL - EMERGENCY","3041 BAYARD ST","",""
"02/13/2017","17:45","217CR0003629","FOUND PROPERTY","FOUND PROPERTY","************","",""
"02/13/2017","17:56","217CR0003630","ALL OTHER","ALL OTHER","I15  MM 116","",""
"02/13/2017","18:02","217CR0003631","JUVENILE MISC","JUVENILE MISC","************","",""
"02/13/2017","18:58","217CR0003632","THEFT","THEFT, ALL OTHERS","3540 HARRISON AVE","ARREST(s) MADE",""
"02/13/2017","19:18","217CR0003633","ALARM - BURGLARY","ALARM - BURGLARY","************","",""
"02/13/2017","19:28","217CR0003634","ACCIDENT","STOP SIGN VIOLATION","DEWEY BLVD AND LEXINGTON AVE","",""
"02/13/2017","20:09","217CR0003635","HIT AND RUN","HIT AND RUN","2950 BUSCH ST","",""
"02/13/2017","20:12","217CR0003636","T/S","T/S","WOOLMAN AND WYOMING","",""
"02/13/2017","20:31","217CR0003637","MEDICAL - EMERGENCY","MEDICAL - EMERGENCY","629 W PARK ST","",""
"02/13/2017","20:33","217CR0003638","BURGLARY","BURGLARY","1325 W QUARTZ APT 306","",""
"02/13/2017","20:45","217CR0003639","DISTURBANCE","AGGRAVATED DUI","1700 BLK LONGFELLOW","ARREST(s) MADE",""
"02/13/2017","20:47","217CR0003640","FOUND PROPERTY","FOUND PROPERTY","************","",""
"02/13/2017","20:53","217CR0003641","PARKING COMPLAINT","PARKING COMPLAINT","300 BLK UTAH ST","",""
"02/13/2017","20:56","217CR0003642","MEDICAL - EMERGENCY","DISORDERLY CONDUCT","2416 S MAIN ST","ARREST(s) MADE",""
"02/13/2017","21:02","217CR0003643","MEDICAL - ASSIST","MEDICAL - ASSIST","************","",""
"02/13/2017","21:54","217CR0003644","ATL","ATL","ELIZABETH WARREN AND HARRISON","",""
"02/13/2017","21:57","217CR0003645","WELFARE CHECK","WELFARE CHECK","100 BLK S EXCELSIOR AVE","",""
"02/13/2017","21:58","217CR0003646","MEDICAL - EMERGENCY","MEDICAL - EMERGENCY","1204 E SECOND ST","",""
"02/13/2017","22:22","217CR0003647","THEFT","THEFT","3901 HARRISON AVE","",""
"02/13/2017","22:40","217CR0003648","HARASSMENT","HARASSMENT","2035 ELM ST","",""
"02/13/2017","23:54","217CR0003649","T/S","T/S","CONTINENTAL DR AND STATE ST","",""
"02/14/2017","00:19","217CR0003650","DISTURBANCE","DISTURBANCE","920 COLORADO","",""
"02/14/2017","00:37","217CR0003651","SUSPICIOUS ACTIVITY","SUSPICIOUS ACTIVITY","EMMA ST AND FARRELL ST","",""
"02/14/2017","00:59","217CR0003652","SUSPICIOUS ACTIVITY","SUSPICIOUS ACTIVITY","1000 BLK S EXCELSIOR AVE","",""
"02/14/2017","01:48","217CR0003653","T/S","DRIVE WHILE SUSP. OR REVOKED","PARK ST AND MONTANA ST","",""
"02/14/2017","02:18","217CR0003654","THEFT","THEFT","1 W PARK","",""
"02/14/2017","02:30","217CR0003655","AP&P BUSINESS","AP&P BUSINESS","910 EVANS AVE APT E4","",""
"02/14/2017","03:40","217CR0003656","SUSPICIOUS ACTIVITY","SUSPICIOUS ACTIVITY","1049 W PORPHYRY","",""
"02/14/2017","06:04","217CR0003658","ALARM - BURGLARY","ALARM - BURGLARY","************","",""
 

Subcategories

Tuesday the 21st. Affiliate Marketing.
Copyright 2012

©